TimeCET,TemperatureF,Dew PointF,Humidity,Sea Level PressureIn,VisibilityMPH,Wind Direction,Wind SpeedMPH,Gust SpeedMPH,PrecipitationIn,Events,Conditions,WindDirDegrees,DateUTC
12:00 AM,56,36,35,30.07,,WNW,9.2,,,,,300,2014-01-27 23:00:00
12:00 AM,55.4,37.4,51,30.06,6.2,WNW,10.4,-,N/A,,Scattered Clouds,300,2014-01-27 23:00:00
12:30 AM,55.4,37.4,51,30.06,6.2,WNW,11.5,-,N/A,,Scattered Clouds,300,2014-01-27 23:30:00
1:00 AM,55,35,36,30.08,19,WNW,12.7,,,,Partly Cloudy,300,2014-01-28 00:00:00
1:00 AM,53.6,35.6,51,30.06,6.2,WNW,11.5,-,N/A,,Scattered Clouds,300,2014-01-28 00:00:00
1:30 AM,53.6,35.6,51,30.06,6.2,WNW,18.4,-,N/A,,Scattered Clouds,300,2014-01-28 00:30:00
2:00 AM,54,34,35,30.08,,WNW,18.4,,,,,300,2014-01-28 01:00:00
2:00 AM,53.6,35.6,51,30.06,6.2,WNW,17.3,-,N/A,,Scattered Clouds,300,2014-01-28 01:00:00
2:30 AM,51.8,35.6,54,30.06,6.2,NW,13.8,25.3,N/A,,Scattered Clouds,310,2014-01-28 01:30:00
3:00 AM,54,35,36,30.06,,WNW,20.7,,,,,300,2014-01-28 02:00:00
3:00 AM,51.8,35.6,54,30.04,6.2,WNW,17.3,31.1,N/A,,Scattered Clouds,300,2014-01-28 02:00:00
3:30 AM,51.8,35.6,54,30.04,6.2,WNW,23.0,35.7,N/A,,Scattered Clouds,300,2014-01-28 02:30:00
4:00 AM,52,36,42,30.05,19,NW,11.5,,,,Partly Cloudy,310,2014-01-28 03:00:00
4:00 AM,50.0,35.6,58,30.04,6.2,NW,11.5,-,N/A,,Scattered Clouds,310,2014-01-28 03:00:00
4:30 AM,50.0,35.6,58,30.04,6.2,NW,9.2,-,N/A,,Partly Cloudy,310,2014-01-28 03:30:00
5:00 AM,52,37,45,30.04,,WNW,17.3,,,,,300,2014-01-28 04:00:00
5:00 AM,50.0,37.4,62,30.04,6.2,WNW,17.3,29.9,N/A,,Partly Cloudy,300,2014-01-28 04:00:00
5:30 AM,50.0,37.4,62,30.01,6.2,WNW,17.3,28.8,N/A,,Partly Cloudy,300,2014-01-28 04:30:00
6:00 AM,51,37,47,30.04,,NW,13.8,,,,,310,2014-01-28 05:00:00
6:00 AM,50.0,37.4,62,30.01,6.2,NW,12.7,-,N/A,,Partly Cloudy,310,2014-01-28 05:00:00
6:30 AM,50.0,37.4,62,30.01,6.2,NW,15.0,27.6,N/A,,Partly Cloudy,310,2014-01-28 05:30:00
7:00 AM,51,37,48,30.04,19,WNW,16.1,,,,Scattered Clouds,300,2014-01-28 06:00:00
7:00 AM,50.0,37.4,62,30.04,6.2,NW,13.8,-,N/A,,Partly Cloudy,310,2014-01-28 06:00:00
7:30 AM,50.0,37.4,62,30.04,6.2,WNW,16.1,-,N/A,,Partly Cloudy,300,2014-01-28 06:30:00
8:00 AM,50,37,51,30.06,,WNW,15.0,,,,,300,2014-01-28 07:00:00
8:00 AM,48.2,37.4,66,30.04,6.2,WNW,13.8,-,N/A,,Scattered Clouds,300,2014-01-28 07:00:00
8:30 AM,48.2,37.4,66,30.04,6.2,NW,12.7,-,N/A,,Scattered Clouds,310,2014-01-28 07:30:00
9:00 AM,50,37,51,30.07,,WNW,9.2,,,,,300,2014-01-28 08:00:00
9:00 AM,48.2,37.4,66,30.06,6.2,WNW,9.2,-,N/A,,Partly Cloudy,300,2014-01-28 08:00:00
9:30 AM,50.0,37.4,62,30.04,6.2,WNW,12.7,-,N/A,,Partly Cloudy,300,2014-01-28 08:30:00
10:00 AM,52,38,47,30.07,19,WNW,12.7,,,,Scattered Clouds,300,2014-01-28 09:00:00
10:00 AM,51.8,37.4,58,30.06,6.2,NW,11.5,-,N/A,,Partly Cloudy,310,2014-01-28 09:00:00
10:30 AM,53.6,37.4,54,30.06,6.2,NW,12.7,-,N/A,,Partly Cloudy,310,2014-01-28 09:30:00
11:00 AM,55,37,39,30.07,,WNW,16.1,,,,,300,2014-01-28 10:00:00
11:00 AM,53.6,37.4,54,30.06,6.2,NW,15.0,27.6,N/A,,Partly Cloudy,310,2014-01-28 10:00:00
11:30 AM,55.4,37.4,51,30.04,6.2,NW,13.8,25.3,N/A,,Partly Cloudy,310,2014-01-28 10:30:00
12:00 PM,57,36,33,30.06,,NW,13.8,,,,,310,2014-01-28 11:00:00
12:00 PM,57.2,37.4,48,30.04,6.2,NW,12.7,-,N/A,,Scattered Clouds,310,2014-01-28 11:00:00
12:30 PM,57.2,37.4,48,30.01,6.2,NW,12.7,25.3,N/A,,Scattered Clouds,310,2014-01-28 11:30:00
1:00 PM,60,35,27,30.01,19,WNW,17.3,,,,Partly Cloudy,290,2014-01-28 12:00:00
1:00 PM,59.0,35.6,42,30.01,6.2,WNW,15.0,26.5,N/A,,Scattered Clouds,290,2014-01-28 12:00:00
1:30 PM,59.0,33.8,39,29.98,6.2,WNW,19.6,33.4,N/A,,Scattered Clouds,300,2014-01-28 12:30:00
2:00 PM,61,34,24,29.98,,WNW,20.7,,,,,290,2014-01-28 13:00:00
2:00 PM,59.0,33.8,39,29.98,6.2,WNW,20.7,-,N/A,,Partly Cloudy,290,2014-01-28 13:00:00
2:30 PM,59.0,35.6,42,29.95,6.2,NW,15.0,26.5,N/A,,Partly Cloudy,310,2014-01-28 13:30:00
3:00 PM,61,34,24,29.95,,WNW,16.1,,,,,300,2014-01-28 14:00:00
3:00 PM,60.8,35.6,39,29.95,6.2,WNW,17.3,-,N/A,,Partly Cloudy,300,2014-01-28 14:00:00
3:30 PM,60.8,35.6,39,29.92,6.2,NW,15.0,-,N/A,,Partly Cloudy,310,2014-01-28 14:30:00
4:00 PM,61,34,25,29.92,19,WNW,15.0,,,,Scattered Clouds,300,2014-01-28 15:00:00
4:00 PM,60.8,35.6,39,29.92,6.2,NW,15.0,28.8,N/A,,Partly Cloudy,310,2014-01-28 15:00:00
4:30 PM,60.8,37.4,42,29.89,6.2,NW,12.7,24.2,N/A,,Partly Cloudy,310,2014-01-28 15:30:00
5:00 PM,61,36,28,29.89,,WNW,13.8,,,,,300,2014-01-28 16:00:00
5:00 PM,59.0,37.4,45,29.89,6.2,WNW,12.7,-,N/A,,Partly Cloudy,300,2014-01-28 16:00:00
5:30 PM,59.0,37.4,45,29.86,6.2,WNW,11.5,-,N/A,,Partly Cloudy,290,2014-01-28 16:30:00
6:00 PM,60,37,31,29.88,,WNW,10.4,,,,,300,2014-01-28 17:00:00
6:00 PM,59.0,37.4,45,29.86,6.2,NW,10.4,-,N/A,,Scattered Clouds,310,2014-01-28 17:00:00
6:30 PM,57.2,39.2,51,29.86,6.2,NW,9.2,-,N/A,,Scattered Clouds,320,2014-01-28 17:30:00
7:00 PM,58,39,37,29.87,16,WNW,10.4,,,,Partly Cloudy,290,2014-01-28 18:00:00
7:00 PM,57.2,39.2,51,29.86,6.2,WNW,9.2,-,N/A,,Scattered Clouds,300,2014-01-28 18:00:00
7:30 PM,55.4,39.2,54,29.86,6.2,SW,2.3,-,N/A,,Scattered Clouds,220,2014-01-28 18:30:00
8:00 PM,57,40,41,29.85,,West,2.3,,,,,280,2014-01-28 19:00:00
8:00 PM,55.4,41.0,58,29.83,6.2,Variable,2.3,-,N/A,,Scattered Clouds,0,2014-01-28 19:00:00
8:30 PM,55.4,41.0,58,29.83,6.2,Variable,2.3,-,N/A,,Scattered Clouds,0,2014-01-28 19:30:00
9:00 PM,56,41,46,29.84,,SSE,2.3,,,,,160,2014-01-28 20:00:00
9:00 PM,53.6,41.0,62,29.83,6.2,Variable,1.2,-,N/A,,Scattered Clouds,0,2014-01-28 20:00:00
9:30 PM,53.6,41.0,62,29.80,6.2,Variable,2.3,-,N/A,,Mostly Cloudy,0,2014-01-28 20:30:00
10:00 PM,56,43,50,29.82,12,NE,2.3,,,,Mostly Cloudy,50,2014-01-28 21:00:00
10:00 PM,55.4,42.8,63,29.80,6.2,Variable,2.3,-,N/A,,Mostly Cloudy,0,2014-01-28 21:00:00
10:30 PM,53.6,42.8,67,29.80,6.2,Calm,Calm,-,N/A,,Mostly Cloudy,0,2014-01-28 21:30:00
11:00 PM,53,42,56,29.81,,SSW,2.3,,,,,200,2014-01-28 22:00:00
11:00 PM,51.8,42.8,71,29.80,6.2,Calm,Calm,-,N/A,,Mostly Cloudy,0,2014-01-28 22:00:00
11:30 PM,51.8,41.0,67,29.77,6.2,Variable,2.3,-,N/A,,Mostly Cloudy,0,2014-01-28 22:30:00